Weather History for Youngstown, OH

Change the Weather History Date:

Friday, June 21, 2013

  Actual Average Record
Temperature  
Mean Temperature 67 °F 68 °F  
Max Temperature 84 °F 79 °F 98 °F (1933)
Min Temperature 50 °F 57 °F 35 °F (1897)
Degree Days  
Heating Degree Days 0 1  
Month to date heating degree days 56 60  
Since 1 June heating degree days 56 60  
Since 1 July heating degree days 6156 6340  
Cooling Degree Days 2 4  
Month to date cooling degree days 41 63  
Year to date cooling degree days 129 102  
Since 1 June cooling degree days 41 63  
Growing Degree Days 17 (Base 50)    
Moisture  
Dew Point 54 °F    
Average Humidity 65    
Maximum Humidity 93    
Minimum Humidity 37    
Precipitation  
Precipitation 0.00 in 0.13 in 0.88 in (1956)
Month to date precipitation 2.69 2.70  
Year to date precipitation 14.46 17.49  
Snow  
Snow 0.00 in 0.00 in - ()
Month to date snowfall 0.0 0.0  
Since 1 June snowfall 0.0 0.0  
Since 1 July snowfall 80.9 62.7  
Snow Depth 0.00 in    
Sea Level Pressure  
Sea Level Pressure 30.22 in    
Wind  
Wind Speed 3 mph (SSE)    
Max Wind Speed 9 mph    
Max Gust Speed 16 mph    
Visibility 10 miles    
Events      
T = Trace of Precipitation, MM = Missing Value Source: NWS Daily Summary

Daily Weather History Graph

Daily Weather History Graph

Search for Another Location

Airport:

Trip Planner

Search our weather history database for the weather conditions in past years. The results will help you decide how hot, cold, wet, or windy it might be!

Date:

Astronomy

Jun. 21, 2013 Rise Set
Actual Time 5:49 AM EDT 8:59 PM EDT
Civil Twilight 5:16 AM EDT 9:33 PM EDT
Nautical Twilight 4:32 AM EDT 10:16 PM EDT
Astronomical Twilight 3:40 AM EDT 11:08 PM EDT
Moon 7:07 PM EDT (6/21) 4:04 AM EDT (6/21)
Length of Visible Light 16h 17m
Length of Day
15h 09m
Waxing Gibbous, 95% of the Moon is Illuminated
Jun 21
Waxing Gibbous
Jun 23
Full
Jun 30
Last Quarter
Jul 8
New
Jul 15
First Quarter

Hourly Weather History & Observations

Time (EDT) Temp. Heat Index Dew Point Humidity Pressure Visibility Wind Dir Wind Speed Gust Speed Precip Events Conditions
12:51 AM 55.0 °F - 50.0 °F 83% 30.23 in 10.0 mi East 5.8 mph - N/A   Partly Cloudy
1:51 AM 57.9 °F - 51.1 °F 78% 30.23 in 10.0 mi East 3.5 mph - N/A   Partly Cloudy
2:51 AM 55.0 °F - 51.1 °F 86% 30.24 in 10.0 mi Calm Calm - N/A   Partly Cloudy
3:51 AM 53.1 °F - 51.1 °F 93% 30.23 in 9.0 mi Calm Calm - N/A   Partly Cloudy
4:51 AM 54.0 °F - 52.0 °F 93% 30.23 in 10.0 mi Calm Calm - N/A   Partly Cloudy
5:51 AM 51.1 °F - 48.9 °F 92% 30.24 in 9.0 mi ESE 3.5 mph - N/A   Partly Cloudy
6:51 AM 55.0 °F - 53.1 °F 93% 30.25 in 9.0 mi ESE 3.5 mph - N/A   Partly Cloudy
7:51 AM 64.0 °F - 57.0 °F 78% 30.25 in 10.0 mi Calm Calm - N/A   Scattered Clouds
8:51 AM 69.1 °F - 55.9 °F 63% 30.25 in 10.0 mi SSE 5.8 mph - N/A   Scattered Clouds
9:51 AM 73.0 °F - 55.9 °F 55% 30.27 in 10.0 mi SSW 4.6 mph - N/A   Clear
10:51 AM 75.9 °F - 55.0 °F 48% 30.27 in 10.0 mi West 4.6 mph - N/A   Clear
11:51 AM 78.1 °F - 54.0 °F 43% 30.27 in 10.0 mi Calm Calm - N/A   Partly Cloudy
12:51 PM 80.1 °F 79.9 °F 53.1 °F 39% 30.25 in 10.0 mi Calm Calm - N/A   Scattered Clouds
1:51 PM 81.0 °F 80.4 °F 53.1 °F 38% 30.25 in 10.0 mi Calm Calm - N/A   Scattered Clouds
2:51 PM 82.0 °F 81.3 °F 54.0 °F 38% 30.24 in 10.0 mi South 3.5 mph - N/A   Mostly Cloudy
3:51 PM 82.9 °F 82.0 °F 55.0 °F 38% 30.22 in 10.0 mi NW 4.6 mph - N/A   Mostly Cloudy
4:51 PM 82.0 °F 81.3 °F 54.0 °F 38% 30.21 in 10.0 mi WSW 5.8 mph - N/A   Mostly Cloudy
5:51 PM 82.0 °F 81.4 °F 55.0 °F 39% 30.19 in 10.0 mi South 5.8 mph - N/A   Mostly Cloudy
6:51 PM 82.0 °F 81.4 °F 55.0 °F 39% 30.18 in 10.0 mi SW 3.5 mph - N/A   Mostly Cloudy
7:51 PM 78.1 °F - 60.1 °F 54% 30.17 in 10.0 mi SE 3.5 mph - N/A   Mostly Cloudy
8:51 PM 72.0 °F - 59.0 °F 64% 30.17 in 10.0 mi Calm Calm - N/A   Mostly Cloudy
9:51 PM 72.0 °F - 55.9 °F 57% 30.17 in 10.0 mi SSE 4.6 mph - N/A   Mostly Cloudy
10:51 PM 71.1 °F - 55.9 °F 59% 30.17 in 10.0 mi SE 6.9 mph - N/A   Mostly Cloudy
11:51 PM 68.0 °F - 55.9 °F 65% 30.17 in 10.0 mi SE 6.9 mph - N/A   Mostly Cloudy